Location: *
(42.0175°N, 9.4056°E)
Time: 14:50:01
(UTC+00:00)

USA 229 - Pass Details

Date: 25 August 2019
Orbit: 1005 x 1207 km, 63.4° (Epoch: 31 August)

Event Time Altitude Azimuth Distance (km) Brightness Sun altitude
Rises 20:59:10 0° 322° (NW) 3,974 8.0 -27.7°
Reaches altitude 10° 21:01:50 10° 320° (NW) 3,039 7.0 -28.0°
Maximum altitude 21:09:03 68° 240° (WSW) 1,258 3.9 -28.9°
Enters shadow 21:10:17 59° 192° (SSW) 1,348 3.9 -29.0°
